FW3135 Weather Reports


Display with metric or nautical units.
time (UTC)temp
F
wind
direction
speed
MPH
gust
MPH
rain 1hr
in
rain 24hr
in
rain mn
in
humidity
%
barometer
mb
20260903035827 69 96 0.0 0.0 0.00 0.00 0.00 72 1020.8
20260903035334 69 96 0.0 0.0 0.00 0.00 0.00 73 1020.8
20260903034823 69 96 0.0 1.0 0.00 0.00 0.00 74 1020.8
20260903034333 69 96 0.0 1.0 0.00 0.00 0.00 74 1020.8
20260903033835 70 96 0.0 0.0 0.00 0.00 0.00 74 1020.9
20260903033331 70 96 0.0 0.0 0.00 0.00 0.00 74 1020.9
20260903032822 70 96 0.0 1.0 0.00 0.00 0.00 73 1021.0
20260903032334 70 96 0.0 0.0 0.00 0.00 0.00 73 1020.9
20260903031834 70 96 0.0 1.0 0.00 0.00 0.00 72 1020.9
20260903031331 71 96 0.0 1.0 0.00 0.00 0.00 71 1020.9
20260903030830 71 96 0.0 0.0 0.00 0.00 0.00 70 1020.9
20260903030317 71 96 0.0 0.0 0.00 0.00 0.00 69 1020.9
20260903025821 72 96 0.0 1.0 0.00 0.00 0.00 69 1021.0
20260903025341 72 96 0.0 3.0 0.00 0.00 0.00 67 1021.0
20260903024815 72 96 0.0 3.0 0.00 0.00 0.00 66 1021.1
20260903024318 72 100 1.0 3.0 0.00 0.00 0.00 65 1021.0
20260903023820 72 101 1.0 3.0 0.00 0.00 0.00 65 1021.1
20260903023320 72 92 0.0 3.0 0.00 0.00 0.00 65 1021.0
20260903022828 72 92 0.0 3.0 0.00 0.00 0.00 65 1021.0
20260903022329 73 92 1.0 3.0 0.00 0.00 0.00 65 1020.9
20260903021824 73 94 1.0 3.0 0.00 0.00 0.00 64 1021.0
20260903021333 73 142 1.0 2.0 0.00 0.00 0.00 64 1021.0
20260903020825 73 231 0.0 0.0 0.00 0.00 0.00 65 1021.0
20260903020346 73 232 0.0 0.0 0.00 0.00 0.00 65 1020.9
20260903015829 73 232 0.0 3.0 0.00 0.00 0.00 64 1021.0
20260903015333 72 245 0.0 3.0 0.00 0.00 0.00 66 1020.8
20260903014847 72 248 0.0 3.0 0.00 0.00 0.00 67 1020.8
20260903014320 72 248 0.0 3.0 0.00 0.00 0.00 68 1020.9
20260903013820 73 284 0.0 3.0 0.00 0.00 0.00 66 1020.8
20260903013314 72 342 0.0 3.0 0.00 0.00 0.00 66 1020.8
20260903012827 72 102 0.0 3.0 0.00 0.00 0.00 67 1020.8
20260903012325 72 161 0.0 0.0 0.00 0.00 0.00 68 1020.9
20260903011822 72 161 0.0 0.0 0.00 0.00 0.00 68 1020.9
20260903011320 72 161 0.0 0.0 0.00 0.00 0.00 68 1021.0
20260903010816 72 161 0.0 0.0 0.00 0.00 0.00 68 1021.0
20260903010340 72 161 0.0 0.0 0.00 0.00 0.00 68 1021.1
20260903005816 72 161 0.0 0.0 0.00 0.00 0.00 69 1021.2
20260903005326 72 161 0.0 0.0 0.00 0.00 0.00 68 1021.2
20260903004831 72 161 0.0 0.0 0.00 0.00 0.00 68 1021.3
20260903004343 72 161 0.0 0.0 0.00 0.00 0.00 68 1021.3
20260903003827 73 161 0.0 0.0 0.00 0.00 0.00 68 1021.4
20260903003322 73 161 0.0 0.0 0.00 0.00 0.00 67 1021.4
20260903002833 73 161 0.0 0.0 0.00 0.00 0.00 68 1021.5
20260903002355 73 161 0.0 2.0 0.00 0.00 0.00 66 1021.5
20260903001831 73 161 0.0 2.0 0.00 0.00 0.00 66 1021.4
20260903001325 73 165 0.0 5.0 0.00 0.00 0.00 66 1021.4
20260903000818 74 165 3.0 5.0 0.00 0.00 0.00 65 1021.4
20260903000322 74 157 1.0 2.0 0.00 0.00 0.00 64 1021.5
20260902235814 74 185 0.0 0.0 0.00 0.00 0.00 64 1021.4
20260902235315 74 185 0.0 0.0 0.00 0.00 0.00 63 1021.4
20260902234824 75 185 0.0 1.0 0.00 0.00 0.00 63 1021.5
20260902234315 75 185 0.0 3.0 0.00 0.00 0.00 62 1021.4
20260902233816 75 185 1.0 5.0 0.00 0.00 0.00 62 1021.4
20260902233326 76 183 3.0 9.0 0.00 0.00 0.00 61 1021.4
20260902232830 76 360 4.0 11.0 0.00 0.00 0.00 60 1021.2
20260902232323 76 98 5.0 12.0 0.00 0.00 0.00 60 1021.2
20260902231818 76 360 5.0 12.0 0.00 0.00 0.00 60 1021.2
20260902231321 76 80 7.0 12.0 0.00 0.00 0.00 60 1021.2
20260902230814 76 64 7.0 14.0 0.00 0.00 0.00 59 1021.1
20260902230338 76 346 6.0 13.0 0.00 0.00 0.00 59 1021.1
20260902225840 76 49 8.0 13.0 0.00 0.00 0.00 60 1021.1
20260902225316 76 341 6.0 15.0 0.00 0.00 0.00 60 1021.2
20260902224818 76 67 7.0 15.0 0.00 0.00 0.00 60 1021.2
20260902224318 76 50 7.0 14.0 0.00 0.00 0.00 60 1021.1
20260902223832 76 39 7.0 13.0 0.00 0.00 0.00 60 1021.1
20260902223330 76 96 8.0 16.0 0.00 0.00 0.00 60 1021.1
20260902222823 76 344 7.0 16.0 0.00 0.00 0.00 60 1021.2
20260902222318 76 360 7.0 17.0 0.00 0.00 0.00 61 1021.1
20260902221831 76 42 7.0 17.0 0.00 0.00 0.00 61 1021.1
20260902221350 76 360 8.0 13.0 0.00 0.00 0.00 61 1021.3
20260902220820 76 71 7.0 15.0 0.00 0.00 0.00 61 1021.2
20260902220317 76 82 6.0 16.0 0.00 0.00 0.00 61 1021.2
20260902215832 76 53 8.0 16.0 0.00 0.00 0.00 61 1021.1
20260902215353 76 360 7.0 18.0 0.00 0.00 0.00 62 1021.2
20260902214822 76 55 8.0 16.0 0.00 0.00 0.00 62 1021.1
20260902214314 76 32 7.0 15.0 0.00 0.00 0.00 62 1021.3
20260902213836 76 57 8.0 15.0 0.00 0.00 0.00 62 1021.2
20260902213350 75 346 7.0 17.0 0.00 0.00 0.00 63 1021.2
20260902212903 75 40 7.0 17.0 0.00 0.00 0.00 63 1021.1
20260902212327 75 42 7.0 16.0 0.00 0.00 0.00 64 1021.2
20260902211857 75 63 7.0 15.0 0.00 0.00 0.00 64 1021.2
20260902211325 75 37 6.0 17.0 0.00 0.00 0.00 65 1021.2
20260902210829 75 50 6.0 17.0 0.00 0.00 0.00 65 1021.3
20260902210332 75 33 6.0 16.0 0.00 0.00 0.00 65 1021.2
20260902205817 75 92 7.0 16.0 0.00 0.00 0.00 65 1021.3
20260902205325 75 325 7.0 16.0 0.00 0.00 0.00 65 1021.1
20260902204821 75 355 7.0 17.0 0.00 0.00 0.00 66 1021.2
20260902204318 75 55 8.0 17.0 0.00 0.00 0.00 65 1021.2
20260902203836 76 360 7.0 16.0 0.00 0.00 0.00 65 1021.1
20260902203329 76 52 8.0 17.0 0.00 0.00 0.00 65 1021.0
20260902202826 76 39 8.0 19.0 0.00 0.00 0.00 65 1021.0
20260902202328 76 44 9.0 19.0 0.00 0.00 0.00 65 1021.0
20260902201827 76 360 8.0 17.0 0.00 0.00 0.00 66 1021.0
20260902201322 76 46 11.0 17.0 0.00 0.00 0.00 67 1020.9
20260902200847 76 355 8.0 15.0 0.00 0.00 0.00 67 1020.7
20260902200338 76 79 7.0 14.0 0.00 0.00 0.00 68 1020.7
20260902195817 76 298 7.0 17.0 0.00 0.00 0.00 68 1020.6
20260902195340 76 348 8.0 17.0 0.00 0.00 0.00 69 1020.7
20260902194832 76 63 10.0 16.0 0.00 0.00 0.00 69 1020.7
20260902194335 77 344 8.0 15.0 0.00 0.00 0.00 70 1020.6
20260902193831 77 38 6.0 15.0 0.00 0.00 0.00 70 1020.5
20260902193351 77 57 8.0 15.0 0.00 0.00 0.00 71 1020.5
20260902192817 77 98 8.0 15.0 0.00 0.00 0.00 71 1020.4
20260902192320 77 355 7.0 16.0 0.00 0.00 0.00 70 1020.4
20260902191859 77 51 8.0 17.0 0.00 0.00 0.00 70 1020.3
20260902191325 78 360 9.0 15.0 0.00 0.00 0.00 69 1020.5
20260902190846 78 355 6.0 15.0 0.00 0.00 0.00 68 1020.5
20260902190321 79 75 7.0 15.0 0.00 0.00 0.00 67 1020.5
20260902185821 79 360 5.0 12.0 0.00 0.00 0.00 66 1020.5
20260902185320 79 42 4.0 11.0 0.00 0.00 0.00 65 1020.5
20260902184831 80 329 4.0 13.0 0.00 0.00 0.00 65 1020.6
20260902184334 80 57 8.0 13.0 0.00 0.00 0.00 63 1020.5
20260902183827 81 42 6.0 13.0 0.00 0.00 0.00 62 1020.6
20260902183321 81 55 6.0 11.0 0.00 0.00 0.00 61 1020.8
20260902182825 81 42 4.0 11.0 0.00 0.00 0.00 61 1020.7
20260902182322 82 76 5.0 15.0 0.00 0.00 0.00 61 1020.8
20260902181819 82 360 7.0 15.0 0.00 0.00 0.00 60 1020.7
20260902181322 82 31 7.0 13.0 0.00 0.00 0.00 61 1020.7
20260902180817 82 335 7.0 14.0 0.00 0.00 0.00 61 1020.7
20260902180313 82 52 6.0 15.0 0.00 0.00 0.00 61 1020.8
20260902175837 82 40 7.0 14.0 0.00 0.00 0.00 61 1020.7
20260902175331 83 44 7.0 12.0 0.00 0.00 0.00 60 1020.7
20260902174831 83 35 4.0 11.0 0.00 0.00 0.00 61 1020.7
20260902174327 83 40 5.0 12.0 0.00 0.00 0.00 61 1020.8
20260902173829 83 48 5.0 13.0 0.00 0.00 0.00 61 1020.7
20260902173321 84 50 6.0 12.0 0.00 0.00 0.00 61 1020.8
20260902172823 83 47 5.0 12.0 0.00 0.00 0.00 61 1020.8
20260902172338 84 360 5.0 10.0 0.00 0.00 0.00 61 1020.8
20260902171818 84 314 5.0 10.0 0.00 0.00 0.00 60 1020.9
20260902171340 84 73 3.0 10.0 0.00 0.00 0.00 61 1020.8
20260902170815 84 36 3.0 11.0 0.00 0.00 0.00 60 1020.9
20260902170332 84 66 4.0 12.0 0.00 0.00 0.00 60 1020.9
20260902165830 83 360 4.0 12.0 0.00 0.00 0.00 61 1020.8
20260902165326 83 48 4.0 9.0 0.00 0.00 0.00 61 1020.9
20260902164826 83 355 2.0 12.0 0.00 0.00 0.00 62 1021.0
20260902164334 82 72 7.0 12.0 0.00 0.00 0.00 62 1020.8
20260902163821 82 246 1.0 4.0 0.00 0.00 0.00 64 1020.9
20260902163316 82 360 2.0 3.0 0.00 0.00 0.00 64 1021.1
20260902162836 81 234 0.0 6.0 0.00 0.00 0.00 65 1021.1
20260902162314 82 234 2.0 6.0 0.00 0.00 0.00 64 1021.1
20260902161829 82 218 1.0 3.0 0.00 0.00 0.00 64 1021.1
20260902161333 82 200 2.0 3.0 0.00 0.00 0.00 64 1021.0
20260902160822 82 186 2.0 3.0 0.00 0.00 0.00 65 1021.3
20260902160319 81 217 0.0 4.0 0.00 0.00 0.00 66 1021.3
20260902155834 81 216 2.0 4.0 0.00 0.00 0.00 67 1021.5
20260902155337 81 211 1.0 2.0 0.00 0.00 0.00 66 1021.5
20260902154852 81 211 0.0 0.0 0.00 0.00 0.00 65 1021.5
20260902154332 81 209 0.0 0.0 0.00 0.00 0.00 66 1021.3
20260902153829 81 209 0.0 3.0 0.00 0.00 0.00 67 1021.3
20260902153331 81 209 1.0 3.0 0.00 0.00 0.00 67 1021.5
20260902152821 81 211 1.0 4.0 0.00 0.00 0.00 69 1021.6
20260902152321 81 240 2.0 4.0 0.00 0.00 0.00 66 1021.6
20260902151818 81 360 2.0 4.0 0.00 0.00 0.00 64 1021.6
20260902151320 81 251 3.0 4.0 0.00 0.00 0.00 65 1021.6
20260902150833 81 257 3.0 4.0 0.00 0.00 0.00 64 1021.7
20260902150332 80 252 2.0 3.0 0.00 0.00 0.00 65 1021.8
20260902145827 81 360 2.0 3.0 0.00 0.00 0.00 65 1021.9
20260902145352 81 219 1.0 2.0 0.00 0.00 0.00 65 1022.0
20260902144826 81 219 1.0 2.0 0.00 0.00 0.00 66 1022.2
20260902144328 81 232 1.0 2.0 0.00 0.00 0.00 66 1022.2
20260902143819 80 232 0.0 2.0 0.00 0.00 0.00 68 1022.1
20260902143314 80 232 0.0 3.0 0.00 0.00 0.00 69 1022.1
20260902142824 79 232 2.0 3.0 0.00 0.00 0.00 69 1022.1
20260902142345 79 233 2.0 3.0 0.00 0.00 0.00 70 1022.1
20260902141839 79 233 2.0 3.0 0.00 0.00 0.00 71 1022.1
20260902141321 78 231 2.0 3.0 0.00 0.00 0.00 72 1022.1
20260902140833 78 231 1.0 3.0 0.00 0.00 0.00 74 1022.1
20260902140335 78 232 2.0 3.0 0.00 0.00 0.00 73 1022.2
20260902135826 77 232 2.0 3.0 0.00 0.00 0.00 73 1022.2
20260902135319 77 360 2.0 3.0 0.00 0.00 0.00 74 1022.3
20260902134842 77 229 1.0 4.0 0.00 0.00 0.00 75 1022.3
20260902134336 76 360 2.0 4.0 0.00 0.00 0.00 75 1022.3
20260902133815 76 237 2.0 4.0 0.00 0.00 0.00 76 1022.4
20260902133336 76 360 2.0 4.0 0.00 0.00 0.00 77 1022.4
20260902132829 75 360 3.0 4.0 0.00 0.00 0.00 76 1022.4
20260902132331 75 360 2.0 4.0 0.00 0.00 0.00 77 1022.3
20260902131848 75 360 2.0 5.0 0.00 0.00 0.00 76 1022.4
20260902131329 75 360 3.0 5.0 0.00 0.00 0.00 77 1022.4
20260902130826 75 360 4.0 5.0 0.00 0.00 0.00 77 1022.3
20260902130328 75 360 3.0 5.0 0.00 0.00 0.00 78 1022.3
20260902125824 75 360 4.0 5.0 0.00 0.00 0.00 77 1022.4
20260902125317 75 225 2.0 3.0 0.00 0.00 0.00 77 1022.5
20260902124819 75 225 1.0 3.0 0.00 0.00 0.00 78 1022.6
20260902124341 75 205 2.0 4.0 0.00 0.00 0.00 78 1022.6
20260902123841 74 213 2.0 4.0 0.00 0.00 0.00 77 1022.8
20260902123317 74 227 2.0 4.0 0.00 0.00 0.00 78 1022.7
20260902122832 74 360 3.0 4.0 0.00 0.00 0.00 78 1022.8
20260902122335 73 360 2.0 5.0 0.00 0.00 0.00 80 1022.9
20260902121830 73 246 3.0 6.0 0.00 0.00 0.00 80 1023.0
20260902121336 72 360 4.0 7.0 0.00 0.00 0.00 80 1023.1
20260902120829 72 360 4.0 8.0 0.00 0.00 0.00 80 1023.0
20260902120325 72 360 5.0 8.0 0.00 0.00 0.00 79 1023.1
20260902115827 72 234 4.0 6.0 0.00 0.00 0.00 79 1023.1
20260902115329 73 360 3.0 4.0 0.00 0.00 0.00 78 1023.1
20260902114825 73 199 1.0 3.0 0.00 0.00 0.00 79 1023.2
20260902114320 73 199 1.0 3.0 0.00 0.00 0.00 79 1023.4
20260902113841 72 199 1.0 3.0 0.00 0.00 0.00 80 1023.3
20260902113344 72 199 2.0 3.0 0.00 0.00 0.00 80 1023.5
20260902112815 72 242 1.0 3.0 0.00 0.00 0.00 81 1023.5
20260902112327 72 213 1.0 3.0 0.00 0.00 0.00 81 1023.5
20260902111815 71 211 1.0 5.0 0.00 0.00 0.00 82 1023.4
20260902111315 71 360 2.0 6.0 0.00 0.00 0.00 82 1023.5
20260902110817 71 360 2.0 8.0 0.00 0.00 0.00 83 1023.6
20260902110313 70 202 4.0 8.0 0.00 0.00 0.00 83 1023.6
20260902105831 70 360 3.0 8.0 0.00 0.00 0.00 83 1023.5
20260902105327 70 360 5.0 8.0 0.00 0.00 0.00 83 1023.4
20260902104847 70 360 4.0 7.0 0.00 0.00 0.00 83 1023.4
20260902104320 70 232 4.0 8.0 0.00 0.00 0.00 82 1023.4
20260902103830 70 200 4.0 8.0 0.00 0.00 0.00 82 1023.4
20260902103330 70 360 5.0 8.0 0.00 0.00 0.00 82 1023.4
20260902102814 70 360 4.0 8.0 0.00 0.00 0.00 82 1023.4
20260902102337 70 360 4.0 8.0 0.00 0.00 0.00 82 1023.3
20260902101827 70 360 4.0 6.0 0.00 0.00 0.00 82 1023.5
20260902101350 70 240 3.0 6.0 0.00 0.00 0.00 81 1023.5
20260902100825 70 360 3.0 6.0 0.00 0.00 0.00 79 1023.4
20260902100327 71 360 2.0 8.0 0.00 0.00 0.00 80 1023.3
20260902095829 71 360 4.0 8.0 0.00 0.00 0.00 81 1023.2
20260902095324 70 205 1.0 5.0 0.00 0.00 0.00 81 1023.1
20260902094821 70 360 2.0 6.0 0.00 0.00 0.00 80 1023.0
20260902094325 70 188 3.0 6.0 0.00 0.00 0.00 80 1023.1
20260902093820 70 360 3.0 6.0 0.00 0.00 0.00 80 1023.1
20260902093317 70 360 2.0 8.0 0.00 0.00 0.00 78 1023.0
20260902092820 71 129 3.0 8.0 0.00 0.00 0.00 79 1022.9
20260902092317 70 197 2.0 9.0 0.00 0.00 0.00 79 1023.0
20260902091813 70 225 2.0 9.0 0.00 0.00 0.00 79 1023.0
20260902091317 70 169 2.0 6.0 0.00 0.00 0.00 80 1022.9
20260902090814 70 115 1.0 3.0 0.00 0.00 0.00 80 1022.9
20260902090314 69 188 1.0 5.0 0.00 0.00 0.00 80 1022.8
20260902085830 69 231 2.0 6.0 0.00 0.00 0.00 79 1022.8
20260902085314 70 360 1.0 8.0 0.00 0.00 0.00 78 1022.6
20260902084815 70 29 3.0 8.0 0.00 0.00 0.00 78 1022.6
20260902084330 70 316 1.0 9.0 0.00 0.00 0.00 79 1022.7
20260902083834 70 302 3.0 9.0 0.00 0.00 0.00 78 1022.7
20260902083329 70 53 3.0 9.0 0.00 0.00 0.00 79 1022.7
20260902082833 70 293 3.0 10.0 0.00 0.00 0.00 79 1022.7
20260902082328 69 46 6.0 12.0 0.00 0.00 0.00 80 1022.7
20260902081824 69 360 4.0 10.0 0.00 0.00 0.00 80 1022.6
20260902081329 69 82 6.0 13.0 0.00 0.00 0.00 81 1022.6
20260902080825 69 351 7.0 13.0 0.00 0.00 0.00 81 1022.6
20260902080329 69 340 4.0 12.0 0.00 0.00 0.00 81 1022.7
20260902075822 68 42 5.0 9.0 0.00 0.00 0.00 81 1022.4
20260902075318 68 65 2.0 11.0 0.00 0.00 0.00 82 1022.6
20260902074820 68 313 6.0 11.0 0.00 0.00 0.00 82 1022.4
20260902074316 68 349 2.0 10.0 0.00 0.00 0.00 83 1022.6
20260902073815 68 360 2.0 8.0 0.00 0.00 0.00 83 1022.6
20260902073339 67 60 5.0 8.0 0.00 0.00 0.00 83 1022.6
20260902072830 67 61 3.0 9.0 0.00 0.00 0.00 84 1022.4
20260902072332 67 321 3.0 9.0 0.00 0.00 0.00 84 1022.4
20260902071817 67 360 4.0 11.0 0.00 0.00 0.00 84 1022.4
20260902071335 67 42 4.0 9.0 0.00 0.00 0.00 85 1022.3
20260902070826 67 71 3.0 9.0 0.00 0.00 0.00 85 1022.3
20260902070321 66 78 3.0 9.0 0.00 0.00 0.00 86 1022.2
20260902065905 66 76 3.0 7.0 0.00 0.00 0.00 86 1022.2
20260902065315 66 73 3.0 7.0 0.00 0.00 0.00 86 1022.0
20260902064856 66 90 1.0 3.0 0.00 0.00 0.00 87 1022.1
20260902064324 65 51 0.0 4.0 0.00 0.00 0.00 86 1022.0
20260902063824 65 121 1.0 4.0 0.00 0.00 0.00 87 1022.0
20260902063316 65 41 1.0 4.0 0.00 0.00 0.00 87 1021.9
20260902062830 65 62 2.0 8.0 0.00 0.00 0.00 87 1021.9
20260902062321 65 51 3.0 8.0 0.00 0.00 0.00 86 1021.9
20260902061841 65 52 1.0 8.0 0.00 0.00 0.00 86 1021.8
20260902061425 65 95 2.0 6.0 0.00 0.00 0.00 86 1021.7
20260902060826 65 92 1.0 6.0 0.00 0.00 0.00 86 1021.7
20260902060316 65 99 1.0 6.0 0.00 0.00 0.00 86 1021.6
20260902055824 65 75 3.0 8.0 0.00 0.00 0.00 86 1021.7
20260902055343 65 321 4.0 8.0 0.00 0.00 0.00 86 1021.6
20260902054816 65 86 1.0 6.0 0.00 0.00 0.00 86 1021.4
20260902054354 65 50 0.0 10.0 0.00 0.00 0.00 86 1021.4
20260902053824 65 322 2.0 10.0 0.00 0.00 0.00 86 1021.5
20260902053329 65 93 3.0 9.0 0.00 0.00 0.00 86 1021.3
20260902052823 65 225 1.0 9.0 0.00 0.00 0.00 86 1021.2
20260902052341 65 311 2.0 9.0 0.00 0.00 0.00 86 1021.2
20260902051827 65 310 1.0 12.0 0.00 0.00 0.00 86 1021.1
20260902051316 65 360 2.0 12.0 0.00 0.00 0.00 86 1021.0
20260902050816 65 86 4.0 12.0 0.00 0.00 0.00 86 1020.9
20260902050313 65 308 3.0 12.0 0.00 0.00 0.00 86 1020.8
20260902045827 65 73 2.0 16.0 0.00 0.00 0.00 86 1020.8
20260902045322 65 132 8.0 17.0 0.00 0.00 0.00 86 1020.8
20260902044818 65 79 8.0 18.0 0.00 0.00 0.00 86 1020.7
20260902044325 65 88 7.0 19.0 0.00 0.00 0.00 86 1020.6
20260902043818 65 47 7.0 19.0 0.00 0.00 0.00 86 1020.6
20260902043332 65 53 8.0 18.0 0.00 0.00 0.00 86 1020.6
20260902042823 65 51 9.0 17.0 0.00 0.00 0.00 86 1020.8
20260902042325 65 59 9.0 17.0 0.00 0.00 0.00 86 1020.8
20260902041833 65 28 9.0 17.0 0.00 0.00 0.00 86 1020.8
20260902041325 66 41 8.0 17.0 0.00 0.00 0.00 85 1020.9
20260902040822 66 355 9.0 18.0 0.00 0.00 0.00 85 1021.0
20260902040314 66 355 8.0 17.0 0.00 0.00 0.00 85 1021.0